Murray, KY

7:32 PM CDT on April 22, 2018 (GMT -0500)
Kyle-Oakley

Weather History for KCEY - March, 2014

Change the Weather History Date:

Saturday, March 29, 2014

  Actual Average (KPAH) Record (KPAH)
Temperature  
Mean Temperature 44 °F -  
Max Temperature 50 °F 63 °F 83 °F (2007)
Min Temperature 39 °F 44 °F 20 °F (1947)
Degree Days  
Heating Degree Days 20    
Moisture  
Dew Point 40 °F    
Average Humidity 87    
Maximum Humidity 100    
Minimum Humidity 70    
Precipitation  
Precipitation 0.76 in - - ()
Sea Level Pressure  
Sea Level Pressure 30.08 in    
Wind  
Wind Speed 13 mph (North)    
Max Wind Speed 21 mph    
Max Gust Speed 30 mph    
Visibility 7 miles    
Events      
Averages and records for this station are not official NWS values.
T = Trace of Precipitation, MM = Missing Value Source: NWS Daily Summary

Daily Weather History Graph

Daily Weather History Graph

Search for Another Location

Airport or City:

Astronomy

Mar. 29, 2014 Rise Set
Actual Time 6:43 AM CDT 7:13 PM CDT
Civil Twilight 6:17 AM CDT 7:39 PM CDT
Nautical Twilight 5:47 AM CDT 8:09 PM CDT
Astronomical Twilight 5:16 AM CDT 8:40 PM CDT
Moon 5:50 AM CDT (3/29) 6:18 PM CDT (3/29)
Length of Visible Light 13h 21m
Length of Day
12h 29m
Waning Crescent, 2% of the Moon is Illuminated
Mar 29
Waning Crescent
Mar 30
New
Apr 7
First Quarter
Apr 15
Full
Apr 22
Last Quarter

Hourly Weather History & Observations

Time (CDT) Temp. Windchill Dew Point Humidity Pressure Visibility Wind Dir Wind Speed Gust Speed Precip Events Conditions
12:15 AM 50.0 °F - 48.2 °F 94% 29.97 in 3.0 mi North 10.4 mph - 0.06 in   Overcast
12:35 AM 48.2 °F - 48.2 °F 100% 29.98 in 3.0 mi NNE 9.2 mph 16.1 mph 0.12 in   Overcast
12:55 AM 48.2 °F - 48.2 °F 100% 29.95 in 3.0 mi NNE 13.8 mph - 0.16 in   Overcast
1:15 AM 48.2 °F - 48.2 °F 100% 29.95 in 3.0 mi NNE 12.7 mph - 0.04 in   Mostly Cloudy
1:35 AM 48.2 °F - 48.2 °F 100% 29.95 in 3.0 mi NNE 13.8 mph 20.7 mph 0.06 in   Overcast
1:55 AM 48.2 °F - 48.2 °F 100% 29.95 in 2.5 mi NNE 12.7 mph - 0.09 in   Overcast
2:15 AM 48.2 °F - 48.2 °F 100% 29.94 in 3.0 mi NNE 12.7 mph - 0.03 in   Overcast
2:35 AM 46.4 °F 41.5 °F 46.4 °F 100% 29.93 in 3.0 mi NNE 10.4 mph - 0.04 in   Overcast
2:55 AM 46.4 °F 40.4 °F 46.4 °F 100% 29.93 in 4.0 mi NNE 13.8 mph 17.3 mph 0.05 in   Overcast
3:15 AM 46.4 °F 41.1 °F 46.4 °F 100% 29.92 in 3.0 mi NNE 11.5 mph - 0.01 in   Overcast
3:35 AM 46.4 °F 41.1 °F 46.4 °F 100% 29.91 in 4.0 mi NNE 11.5 mph - 0.02 in   Overcast
3:55 AM 46.4 °F 41.5 °F 46.4 °F 100% 29.91 in 3.0 mi North 10.4 mph - 0.04 in   Overcast
4:15 AM 46.4 °F 40.7 °F 46.4 °F 100% 29.91 in 3.0 mi North 12.7 mph 16.1 mph 0.02 in   Overcast
4:35 AM 44.6 °F 38.8 °F 44.6 °F 100% 29.92 in 3.0 mi North 11.5 mph 18.4 mph 0.08 in   Overcast
4:55 AM 44.6 °F 38.8 °F 44.6 °F 100% 29.93 in 3.0 mi North 11.5 mph - 0.15 in   Overcast
5:15 AM 44.6 °F 38.4 °F 44.6 °F 100% 29.92 in 4.0 mi North 12.7 mph 18.4 mph 0.04 in   Overcast
5:35 AM 44.6 °F 38.8 °F 44.6 °F 100% 29.92 in 3.0 mi North 11.5 mph - 0.07 in   Overcast
5:55 AM 44.6 °F 38.1 °F 44.6 °F 100% 29.92 in 5.0 mi NNW 13.8 mph - 0.09 in   Overcast
6:15 AM 44.6 °F 36.9 °F 44.6 °F 100% 29.93 in 4.0 mi North 18.4 mph 23.0 mph 0.02 in   Overcast
6:35 AM 44.6 °F 38.4 °F 44.6 °F 100% 29.94 in 4.0 mi North 12.7 mph 23.0 mph 0.05 in   Overcast
6:55 AM 44.6 °F 38.1 °F 44.6 °F 100% 29.95 in 4.0 mi North 13.8 mph 19.6 mph 0.08 in   Overcast
7:15 AM 44.6 °F 37.8 °F 44.6 °F 100% 29.97 in 2.5 mi North 15.0 mph 19.6 mph 0.03 in   Overcast
7:35 AM 44.6 °F 38.1 °F 44.6 °F 100% 29.98 in 4.0 mi North 13.8 mph - 0.04 in   Overcast
7:55 AM 44.6 °F 37.8 °F 44.6 °F 100% 29.99 in 7.0 mi North 15.0 mph 23.0 mph 0.05 in   Overcast
8:15 AM 44.6 °F 38.1 °F 44.6 °F 100% 30.01 in 5.0 mi North 13.8 mph 23.0 mph N/A   Mostly Cloudy
8:35 AM 44.6 °F 38.1 °F 44.6 °F 100% 30.01 in 4.0 mi North 13.8 mph 21.9 mph 0.01 in   Mostly Cloudy
8:55 AM 44.6 °F 37.4 °F 44.6 °F 100% 30.03 in 5.0 mi NNW 16.1 mph 21.9 mph 0.02 in   Mostly Cloudy
9:15 AM 44.6 °F 38.4 °F 44.6 °F 100% 30.04 in 4.0 mi North 12.7 mph 20.7 mph 0.02 in   Mostly Cloudy
9:35 AM 44.6 °F 37.8 °F 44.6 °F 100% 30.05 in 7.0 mi NNW 15.0 mph 20.7 mph 0.03 in   Mostly Cloudy
9:55 AM 42.8 °F 35.4 °F 42.8 °F 100% 30.06 in 10.0 mi NNW 15.0 mph 21.9 mph 0.03 in   Overcast
10:15 AM 42.8 °F 35.8 °F 42.8 °F 100% 30.06 in 10.0 mi NNW 13.8 mph 21.9 mph N/A   Overcast
10:35 AM 44.6 °F 37.8 °F 42.8 °F 93% 30.06 in 9.0 mi North 15.0 mph 23.0 mph N/A   Overcast
10:55 AM 44.6 °F 36.9 °F 42.8 °F 93% 30.06 in 9.0 mi NNW 18.4 mph 27.6 mph N/A   Overcast
11:15 AM 44.6 °F 37.8 °F 41.0 °F 87% 30.07 in 8.0 mi North 15.0 mph 24.2 mph N/A   Overcast
11:35 AM 44.6 °F 37.2 °F 41.0 °F 87% 30.08 in 8.0 mi NNW 17.3 mph 21.9 mph N/A   Overcast
11:55 AM 44.6 °F 36.4 °F 41.0 °F 87% 30.08 in 8.0 mi NNW 20.7 mph 27.6 mph N/A   Overcast
12:15 PM 44.6 °F 38.4 °F 41.0 °F 87% 30.08 in 8.0 mi NNW 12.7 mph 24.2 mph N/A   Overcast
12:35 PM 44.6 °F 37.2 °F 39.2 °F 81% 30.08 in 10.0 mi NNW 17.3 mph 25.3 mph N/A   Overcast
12:55 PM 44.6 °F 37.8 °F 39.2 °F 81% 30.08 in 10.0 mi NNW 15.0 mph 23.0 mph N/A   Overcast
1:15 PM 44.6 °F 37.4 °F 39.2 °F 81% 30.08 in 10.0 mi NNW 16.1 mph 24.2 mph N/A   Overcast
1:35 PM 44.6 °F 36.4 °F 37.4 °F 76% 30.09 in 10.0 mi NNW 20.7 mph 29.9 mph N/A   Overcast
1:55 PM 44.6 °F 36.9 °F 37.4 °F 76% 30.10 in 10.0 mi NNW 18.4 mph 26.5 mph N/A   Overcast
2:15 PM 44.6 °F 36.6 °F 37.4 °F 76% 30.11 in 10.0 mi NNW 19.6 mph 25.3 mph N/A   Overcast
2:35 PM 44.6 °F 38.1 °F 37.4 °F 76% 30.11 in 10.0 mi NNW 13.8 mph 23.0 mph N/A   Overcast
2:55 PM 44.6 °F 38.1 °F 37.4 °F 76% 30.12 in 10.0 mi North 13.8 mph 21.9 mph N/A   Overcast
3:15 PM 44.6 °F 38.1 °F 37.4 °F 76% 30.13 in 10.0 mi NNW 13.8 mph 23.0 mph N/A   Overcast
3:35 PM 44.6 °F 37.8 °F 35.6 °F 71% 30.14 in 10.0 mi NNW 15.0 mph 23.0 mph N/A   Overcast
3:55 PM 44.6 °F 37.4 °F 35.6 °F 71% 30.14 in 9.0 mi NNW 16.1 mph 23.0 mph N/A   Overcast
4:15 PM 44.6 °F 37.2 °F 35.6 °F 71% 30.15 in 8.0 mi NNW 17.3 mph 21.9 mph N/A   Overcast
4:35 PM 44.6 °F 38.1 °F 35.6 °F 71% 30.15 in 8.0 mi NNW 13.8 mph - N/A   Overcast
4:55 PM 42.8 °F 35.4 °F 35.6 °F 76% 30.16 in 7.0 mi NNW 15.0 mph - N/A   Overcast
5:15 PM 44.6 °F 38.1 °F 35.6 °F 71% 30.16 in 8.0 mi NNW 13.8 mph 20.7 mph N/A   Overcast
5:35 PM 44.6 °F 38.1 °F 35.6 °F 71% 30.17 in 8.0 mi NNW 13.8 mph 20.7 mph N/A   Overcast
5:55 PM 44.6 °F 37.8 °F 35.6 °F 71% 30.18 in 7.0 mi NNW 15.0 mph 21.9 mph N/A   Overcast
6:15 PM 42.8 °F 35.8 °F 35.6 °F 76% 30.19 in 8.0 mi North 13.8 mph 19.6 mph N/A   Overcast
6:35 PM 42.8 °F 36.6 °F 35.6 °F 76% 30.19 in 8.0 mi NNW 11.5 mph 16.1 mph N/A   Overcast
6:55 PM 42.8 °F 35.8 °F 35.6 °F 76% 30.20 in 7.0 mi NNW 13.8 mph 17.3 mph N/A   Overcast
7:15 PM 41.0 °F 32.5 °F 35.6 °F 81% 30.21 in 8.0 mi NNW 17.3 mph 20.7 mph N/A   Overcast
7:35 PM 41.0 °F 34.3 °F 35.6 °F 81% 30.21 in 9.0 mi North 11.5 mph 19.6 mph N/A   Overcast
7:55 PM 41.0 °F 33.5 °F 35.6 °F 81% 30.22 in 9.0 mi NNW 13.8 mph 19.6 mph N/A   Overcast
8:15 PM 41.0 °F 33.9 °F 35.6 °F 81% 30.23 in 8.0 mi North 12.7 mph 19.6 mph N/A   Overcast
8:35 PM 41.0 °F 33.9 °F 35.6 °F 81% 30.23 in 8.0 mi NNW 12.7 mph - N/A   Overcast
8:55 PM 41.0 °F 33.5 °F 33.8 °F 76% 30.24 in 9.0 mi North 13.8 mph 17.3 mph N/A   Overcast
9:15 PM 41.0 °F 34.7 °F 32.0 °F 70% 30.25 in 10.0 mi NNW 10.4 mph - N/A   Overcast
9:35 PM 41.0 °F 33.9 °F 32.0 °F 70% 30.26 in 10.0 mi NNW 12.7 mph 19.6 mph N/A   Overcast
9:55 PM 41.0 °F 34.3 °F 32.0 °F 70% 30.26 in 10.0 mi North 11.5 mph - N/A   Overcast
10:15 PM 41.0 °F 35.2 °F 32.0 °F 70% 30.26 in 10.0 mi NNW 9.2 mph - N/A   Overcast
10:35 PM 41.0 °F 36.4 °F 32.0 °F 70% 30.25 in 9.0 mi NNW 6.9 mph - N/A   Overcast
10:55 PM 41.0 °F 37.1 °F 32.0 °F 70% 30.25 in 10.0 mi NNW 5.8 mph - N/A   Overcast
11:15 PM 41.0 °F 38.0 °F 32.0 °F 70% 30.24 in 10.0 mi North 4.6 mph - N/A   Overcast
11:35 PM 39.2 °F 34.2 °F 32.0 °F 75% 30.24 in 9.0 mi North 6.9 mph - N/A   Overcast
11:55 PM 39.2 °F 35.9 °F 32.0 °F 75% 30.23 in 9.0 mi North 4.6 mph - N/A   Overcast